This is the latest recevied weather packets stored in our database for station/object N0NPO. If no packets are shown the sender has not sent any weather packets the latest 10 day(s).
| Time | Temp. | Humidity | Pressure | Rain* | Wind** | Luminosity | Snow |
|---|---|---|---|---|---|---|---|
| 1777484231 | 12.22° C | 1% | 1022.3 hPa | 0 mm | - | 727 W/m² | - |
| 1777483927 | 12.22° C | 1% | 1022.1 hPa | 0 mm | - | 670 W/m² | - |
| 1777483623 | 12.78° C | 1% | 1022.3 hPa | 0 mm | - | 676 W/m² | - |
| 1777483318 | 11.67° C | 1% | 1022.1 hPa | 0 mm | - | 637 W/m² | - |
| 1777483014 | 12.22° C | 1% | 1022.4 hPa | 0 mm | - | 769 W/m² | - |
| 1777482711 | 12.22° C | 1% | 1022.3 hPa | 0 mm | - | 597 W/m² | - |
| 1777482407 | 11.11° C | 1% | 1022.3 hPa | 0 mm | - | 678 W/m² | - |
| 1777482105 | 11.67° C | 1% | 1022.5 hPa | 0 mm | - | 768 W/m² | - |
| 1777481803 | 11.11° C | 1% | 1022.5 hPa | 0 mm | - | 772 W/m² | - |
| 1777481500 | 11.11° C | 1% | 1022.6 hPa | 0 mm | - | 629 W/m² | - |
| 1777481196 | 11.11° C | 1% | 1022.7 hPa | 0 mm | - | 714 W/m² | - |
| 1777480893 | 10.56° C | 1% | 1022.6 hPa | 0 mm | - | 744 W/m² | - |
| 1777480589 | 10° C | 1% | 1022.5 hPa | 0 mm | - | 656 W/m² | - |
| 1777480286 | 10° C | 1% | 1022.8 hPa | 0 mm | - | 689 W/m² | - |
| 1777479982 | 10° C | 1% | 1022.7 hPa | 0 mm | - | 591 W/m² | - |
| 1777479679 | 9.44° C | 1% | 1022.7 hPa | 0 mm | - | 776 W/m² | - |
| 1777479378 | 10° C | 1% | 1022.7 hPa | 0 mm | - | 462 W/m² | - |
| 1777479073 | 10° C | 1% | 1022.8 hPa | 0 mm | - | 689 W/m² | - |
| 1777478770 | 10° C | 1% | 1022.8 hPa | 0 mm | - | 675 W/m² | - |
| 1777478466 | 8.89° C | 1% | 1023.1 hPa | 0 mm | - | 650 W/m² | - |
| 1777478164 | 8.89° C | 1% | 1022.8 hPa | 0 mm | - | 621 W/m² | - |
| 1777477860 | 8.89° C | 1% | 1022.7 hPa | 0 mm | - | 599 W/m² | - |
| 1777477555 | 8.89° C | 1% | 1022.7 hPa | 0 mm | - | 643 W/m² | - |
| 1777477252 | 8.33° C | 1% | 1022.7 hPa | 0 mm | - | 515 W/m² | - |
| 1777476948 | 8.33° C | 1% | 1022.6 hPa | 0 mm | - | 588 W/m² | - |
* Rain latest hour (hover to see other rain measurements)
** Current wind speed in m/s (hover to see current wind gust speed)